Location: Utrecht
(52.0907°N, 5.1214°E)
Time: 12:47:59
(UTC+02:00)

SPROUT - Pass Details

Date: 07 July 2022
Orbit: 588 x 598 km, 97.9° (Epoch: 17 August)

Event Time Altitude Azimuth Distance (km) Brightness Sun altitude
Exits shadow 01:39:29 16° 132° (SE) 1,558 ? -15.3°
Maximum altitude 01:42:26 41° 68° (ENE) 865 ? -15.3°
Drops below altitude 10° 01:46:22 10° 358° (N) 1,934 ? -15.3°
Sets 01:48:37 0° 351° (N) 2,842 ? -15.3°
